Home > Products > Valid Products > MTR

000
SAGM31 PGUM 222315
MTRGUM
SPECI PGUM 222315Z 05014KT 10SM BKN020 BKN026 BKN036 30/25 A2995 RMK
AO2




000
SAGM31 PGUM 222315
MTRGUM
SPECI PGUM 222315Z 05014KT 10SM BKN020 BKN026 BKN036 30/25 A2995 RMK
AO2





000
SAGM31 PGUM 222254
MTRGUM
METAR PGUM 222254Z 05014KT 10SM SCT021 SCT030 29/24 A2995 RMK AO2
SLP133 T02940244




000
SAGM31 PGUM 222254
MTRGUM
METAR PGUM 222254Z 05014KT 10SM SCT021 SCT030 29/24 A2995 RMK AO2
SLP133 T02940244





000
SAGM31 PGUM 222155
MTRGUM
METAR PGUM 222154Z 05010KT 10SM FEW018 SCT029 28/25 A2994 RMK AO2
SLP130 T02780250




000
SAGM31 PGUM 222155
MTRGUM
METAR PGUM 222154Z 05010KT 10SM FEW018 SCT029 28/25 A2994 RMK AO2
SLP130 T02780250





000
SAGM31 PGUM 222055
MTRGUM
METAR PGUM 222054Z 06009KT 10SM CLR 27/24 A2991 RMK AO2 RAB02E11
SLP119 P0001 60001 T02670244 53008




000
SAGM31 PGUM 222055
MTRGUM
METAR PGUM 222054Z 06009KT 10SM CLR 27/24 A2991 RMK AO2 RAB02E11
SLP119 P0001 60001 T02670244 53008





000
SAGM31 PGUM 221955
MTRGUM
METAR PGUM 221954Z 06010KT 10SM CLR 27/24 A2989 RMK AO2 SLP113
T02720244




000
SAGM31 PGUM 221955
MTRGUM
METAR PGUM 221954Z 06010KT 10SM CLR 27/24 A2989 RMK AO2 SLP113
T02720244





000
SAGM31 PGUM 221854
MTRGUM
METAR PGUM 221854Z 06009KT 10SM CLR 27/24 A2989 RMK AO2 SLP112
T02720244




000
SAGM31 PGUM 221854
MTRGUM
METAR PGUM 221854Z 06009KT 10SM CLR 27/24 A2989 RMK AO2 SLP112
T02720244





000
SAGM31 PGUM 221754
MTRGUM
METAR PGUM 221754Z 07009KT 10SM FEW025 27/24 A2988 RMK AO2 SLP111
60000 T02720239 10278 20267 55010




000
SAGM31 PGUM 221754
MTRGUM
METAR PGUM 221754Z 07009KT 10SM FEW025 27/24 A2988 RMK AO2 SLP111
60000 T02720239 10278 20267 55010





000
SAGM31 PGUM 221655
MTRGUM
METAR PGUM 221654Z 06008KT 10SM CLR 27/24 A2988 RMK AO2 SLP111
T02720239





000
SAGM31 PGUM 221655
MTRGUM
METAR PGUM 221654Z 06008KT 10SM CLR 27/24 A2988 RMK AO2 SLP111
T02720239




000
SAGM31 PGUM 221555
MTRGUM
METAR PGUM 221554Z 07009KT 10SM SCT036 SCT043 27/24 A2990 RMK AO2
RAE1457 SLP117 P0000 T02720239





000
SAGM31 PGUM 221555
MTRGUM
METAR PGUM 221554Z 07009KT 10SM SCT036 SCT043 27/24 A2990 RMK AO2
RAE1457 SLP117 P0000 T02720239




000
SAGM31 PGUM 221555
MTRGUM
METAR PGUM 221554Z 07009KT 10SM SCT036 SCT043 27/24 A2990 RMK AO2
RAE1457 SLP117 P0000 T02720239




000
SAGM31 PGUM 221555
MTRGUM
METAR PGUM 221554Z 07009KT 10SM SCT036 SCT043 27/24 A2990 RMK AO2
RAE1457 SLP117 P0000 T02720239





000
SAGM31 PGUM 221455
MTRGUM
METAR PGUM 221454Z 07009KT 10SM -RA FEW037 27/24 A2991 RMK AO2 RAB48
SLP121 P0000 60000 T02720239 58003




000
SAGM31 PGUM 221455
MTRGUM
METAR PGUM 221454Z 07009KT 10SM -RA FEW037 27/24 A2991 RMK AO2 RAB48
SLP121 P0000 60000 T02720239 58003





000
SAGM31 PGUM 221354
MTRGUM
METAR PGUM 221354Z 08009KT 10SM FEW019 28/24 A2993 RMK AO2 SLP127
T02780239 403170272




000
SAGM31 PGUM 221354
MTRGUM
METAR PGUM 221354Z 08009KT 10SM FEW019 28/24 A2993 RMK AO2 SLP127
T02780239 403170272





000
SAGM31 PGUM 221354
MTRGUM
METAR PGUM 221354Z 08009KT 10SM FEW019 28/24 A2993 RMK AO2 SLP127
T02780239 403170272





000
SAGM31 PGUM 221354
MTRGUM
METAR PGUM 221354Z 08009KT 10SM FEW019 28/24 A2993 RMK AO2 SLP127
T02780239 403170272




000
SAGM31 PGUM 221254
MTRGUM
METAR PGUM 221254Z 08010KT 10SM CLR 27/23 A2992 RMK AO2 SLP125
T02720233




000
SAGM31 PGUM 221254
MTRGUM
METAR PGUM 221254Z 08010KT 10SM CLR 27/23 A2992 RMK AO2 SLP125
T02720233





000
SAGM31 PGUM 221208
MTRGUM
METAR PGUM 221154Z COR 07011KT 10SM FEW018 28/24 A2992 RMK AO2
SLP124 60001 70004 T02780239 10306 20278 50009





000
SAGM31 PGUM 221208
MTRGUM
METAR PGUM 221154Z COR 07011KT 10SM FEW018 28/24 A2992 RMK AO2
SLP124 60001 70004 T02780239 10306 20278 50009




000
SAGM31 PGUM 221156
MTRGUM
METAR PGUM 221154Z COR 07011KT 10SM FEW018 28/24 A2992 RMK AO2
SLP124 60001 70005 T02780239 10306 20278 50009




000
SAGM31 PGUM 221156
MTRGUM
METAR PGUM 221154Z COR 07011KT 10SM FEW018 28/24 A2992 RMK AO2
SLP124 60001 70005 T02780239 10306 20278 50009





000
SAGM31 PGUM 221154
MTRGUM
METAR PGUM 221154Z 07011KT 10SM FEW018 28/24 A2992 RMK AO2 SLP124
60000 70003 T02780239 10306 20278 50009




000
SAGM31 PGUM 221154
MTRGUM
METAR PGUM 221154Z 07011KT 10SM FEW018 28/24 A2992 RMK AO2 SLP124
60000 70003 T02780239 10306 20278 50009





000
SAGM31 PGUM 221055
MTRGUM
METAR PGUM 221054Z 08012KT 10SM CLR 28/23 A2993 RMK AO2 SLP126
T02780233




000
SAGM31 PGUM 221055
MTRGUM
METAR PGUM 221054Z 08012KT 10SM CLR 28/23 A2993 RMK AO2 SLP126
T02780233





000
SAGM31 PGUM 221055
MTRGUM
METAR PGUM 221054Z 08012KT 10SM CLR 28/23 A2993 RMK AO2 SLP126
T02780233




000
SAGM31 PGUM 221055
MTRGUM
METAR PGUM 221054Z 08012KT 10SM CLR 28/23 A2993 RMK AO2 SLP126
T02780233





000
SAGM31 PGUM 220955
MTRGUM
METAR PGUM 220954Z 08011KT 10SM FEW023 28/24 A2991 RMK AO2 SLP121
T02780239




000
SAGM31 PGUM 220955
MTRGUM
METAR PGUM 220954Z 08011KT 10SM FEW023 28/24 A2991 RMK AO2 SLP121
T02780239





000
SAGM31 PGUM 220855
MTRGUM
METAR PGUM 220854Z 08012G19KT 10SM FEW022 28/24 A2989 RMK AO2 SLP115
60000 T02830239 53014





000
SAGM31 PGUM 220855
MTRGUM
METAR PGUM 220854Z 08012G19KT 10SM FEW022 28/24 A2989 RMK AO2 SLP115
60000 T02830239 53014




000
SAGM31 PGUM 220754
MTRGUM
METAR PGUM 220754Z 08011G19KT 10SM FEW021 28/24 A2987 RMK AO2 RAE01
SLP108 P0000 T02830244




000
SAGM31 PGUM 220754
MTRGUM
METAR PGUM 220754Z 08011G19KT 10SM FEW021 28/24 A2987 RMK AO2 RAE01
SLP108 P0000 T02830244





000
SAGM31 PGUM 220754
MTRGUM
METAR PGUM 220754Z 08011G19KT 10SM FEW021 28/24 A2987 RMK AO2 RAE01
SLP108 P0000 T02830244





000
SAGM31 PGUM 220754
MTRGUM
METAR PGUM 220754Z 08011G19KT 10SM FEW021 28/24 A2987 RMK AO2 RAE01
SLP108 P0000 T02830244




000
SAGM31 PGUM 220654
MTRGUM
METAR PGUM 220654Z 07014G21KT 6SM -RA FEW020 BKN044 29/26 A2987 RMK
AO2 RAB48 SLP106 P0000 T02890256





000
SAGM31 PGUM 220654
MTRGUM
METAR PGUM 220654Z 07014G21KT 6SM -RA FEW020 BKN044 29/26 A2987 RMK
AO2 RAB48 SLP106 P0000 T02890256




000
SAGM31 PGUM 220555
MTRGUM
METAR PGUM 220554Z 08017G23KT 10SM FEW022 31/24 A2985 RMK AO2 SLP100
60003 T03060244 10317 20278 55005




000
SAGM31 PGUM 220555
MTRGUM
METAR PGUM 220554Z 08017G23KT 10SM FEW022 31/24 A2985 RMK AO2 SLP100
60003 T03060244 10317 20278 55005





000
SAGM31 PGUM 220455
MTRGUM
METAR PGUM 220454Z 09014G20KT 10SM FEW022 31/24 A2985 RMK AO2 SLP100
T03110239 $





000
SAGM31 PGUM 220455
MTRGUM
METAR PGUM 220454Z 09014G20KT 10SM FEW022 31/24 A2985 RMK AO2 SLP100
T03110239 $




000
SAGM31 PGUM 220355
MTRGUM
METAR PGUM 220354Z 07015G19KT 10SM SCT020 31/25 A2985 RMK AO2 SLP101
T03110250 $





000
SAGM31 PGUM 220355
MTRGUM
METAR PGUM 220354Z 07015G19KT 10SM SCT020 31/25 A2985 RMK AO2 SLP101
T03110250 $




000
SAGM31 PGUM 220255
MTRGUM
METAR PGUM 220254Z 08018G25KT 10SM FEW022 30/25 A2987 RMK AO2 RAE20
SLP105 P0002 60003 T03000250 58021 $




000
SAGM31 PGUM 220255
MTRGUM
METAR PGUM 220254Z 08018G25KT 10SM FEW022 30/25 A2987 RMK AO2 RAE20
SLP105 P0002 60003 T03000250 58021 $





000
SAGM31 PGUM 220200
MTRGUM
SPECI PGUM 220200Z 07015G21KT 7SM -RA SCT019 BKN040 29/27 A2989 RMK
AO2 P0002 $





000
SAGM31 PGUM 220200
MTRGUM
SPECI PGUM 220200Z 07015G21KT 7SM -RA SCT019 BKN040 29/27 A2989 RMK
AO2 P0002 $





000
SAGM31 PGUM 220200
MTRGUM
SPECI PGUM 220200Z 07015G21KT 7SM -RA SCT019 BKN040 29/27 A2989 RMK
AO2 P0002 $




000
SAGM31 PGUM 220200
MTRGUM
SPECI PGUM 220200Z 07015G21KT 7SM -RA SCT019 BKN040 29/27 A2989 RMK
AO2 P0002 $




000
SAGM31 PGUM 220154
MTRGUM
METAR PGUM 220154Z 08016G22KT 5SM RA SCT019 BKN025 31/25 A2990 RMK
AO2 RAB31 SLP115 P0001 T03110250





000
SAGM31 PGUM 220154
MTRGUM
METAR PGUM 220154Z 08016G22KT 5SM RA SCT019 BKN025 31/25 A2990 RMK
AO2 RAB31 SLP115 P0001 T03110250




000
SAGM31 PGUM 220154
MTRGUM
METAR PGUM 220154Z 08016G22KT 5SM RA SCT019 BKN025 31/25 A2990 RMK
AO2 RAB31 SLP115 P0001 T03110250




000
SAGM31 PGUM 220154
MTRGUM
METAR PGUM 220154Z 08016G22KT 5SM RA SCT019 BKN025 31/25 A2990 RMK
AO2 RAB31 SLP115 P0001 T03110250





000
SAGM31 PGUM 220054
MTRGUM
METAR PGUM 220054Z 09014G20KT 10SM FEW020 SCT035 SCT048 31/24 A2991
RMK AO2 RAB28E37 SLP120 P0000 T03110244




000
SAGM31 PGUM 220054
MTRGUM
METAR PGUM 220054Z 09014G20KT 10SM FEW020 SCT035 SCT048 31/24 A2991
RMK AO2 RAB28E37 SLP120 P0000 T03110244




000
SAGM31 PGUM 212354
MTRGUM
METAR PGUM 212354Z 08013KT 10SM FEW022 SCT029 SCT110 31/24 A2993 RMK
AO2 SLP126 T03110244 10311 20278 51015





000
SAGM31 PGUM 212354
MTRGUM
METAR PGUM 212354Z 08013KT 10SM FEW022 SCT029 SCT110 31/24 A2993 RMK
AO2 SLP126 T03110244 10311 20278 51015




000
SAGM31 PGUM 212354
MTRGUM
METAR PGUM 212354Z 08013KT 10SM FEW022 SCT029 SCT110 31/24 A2993 RMK
AO2 SLP126 T03110244 10311 20278 51015




000
SAGM31 PGUM 212354
MTRGUM
METAR PGUM 212354Z 08013KT 10SM FEW022 SCT029 SCT110 31/24 A2993 RMK
AO2 SLP126 T03110244 10311 20278 51015





000
SAGM31 PGUM 212254
MTRGUM
METAR PGUM 212254Z 08011KT 10SM FEW019 30/24 A2992 RMK AO2 SLP125
T03000244




000
SAGM31 PGUM 212254
MTRGUM
METAR PGUM 212254Z 08011KT 10SM FEW019 30/24 A2992 RMK AO2 SLP125
T03000244





000
SAGM31 PGUM 212155
MTRGUM
METAR PGUM 212154Z 07012KT 10SM FEW021 29/24 A2991 RMK AO2 SLP119
T02890244




000
SAGM31 PGUM 212155
MTRGUM
METAR PGUM 212154Z 07012KT 10SM FEW021 29/24 A2991 RMK AO2 SLP119
T02890244





000
SAGM31 PGUM 212155
MTRGUM
METAR PGUM 212154Z 07012KT 10SM FEW021 29/24 A2991 RMK AO2 SLP119
T02890244





000
SAGM31 PGUM 212155
MTRGUM
METAR PGUM 212154Z 07012KT 10SM FEW021 29/24 A2991 RMK AO2 SLP119
T02890244




000
SAGM31 PGUM 212055
MTRGUM
METAR PGUM 212054Z 08009KT 10SM CLR 28/24 A2989 RMK AO2 SLP112
T02780239 51015




000
SAGM31 PGUM 212055
MTRGUM
METAR PGUM 212054Z 08009KT 10SM CLR 28/24 A2989 RMK AO2 SLP112
T02780239 51015





000
SAGM31 PGUM 211955
MTRGUM
METAR PGUM 211954Z 07010KT 10SM FEW025 SCT034 28/24 A2987 RMK AO2
SLP107 T02780239





000
SAGM31 PGUM 211955
MTRGUM
METAR PGUM 211954Z 07010KT 10SM FEW025 SCT034 28/24 A2987 RMK AO2
SLP107 T02780239




000
SAGM31 PGUM 211955
MTRGUM
METAR PGUM 211954Z 07010KT 10SM FEW025 SCT034 28/24 A2987 RMK AO2
SLP107 T02780239





000
SAGM31 PGUM 211955
MTRGUM
METAR PGUM 211954Z 07010KT 10SM FEW025 SCT034 28/24 A2987 RMK AO2
SLP107 T02780239




000
SAGM31 PGUM 211854
MTRGUM
METAR PGUM 211854Z 08010G18KT 10SM FEW021 28/24 A2986 RMK AO2 SLP103
T02780239





000
SAGM31 PGUM 211754
MTRGUM
METAR PGUM 211754Z 08012KT 10SM FEW017 SCT038 SCT120 28/24 A2984 RMK
AO2 SLP097 60000 T02780244 10283 20278 55008





000
SAGM31 PGUM 211754
MTRGUM
METAR PGUM 211754Z 08012KT 10SM FEW017 SCT038 SCT120 28/24 A2984 RMK
AO2 SLP097 60000 T02780244 10283 20278 55008




000
SAGM31 PGUM 211655
MTRGUM
METAR PGUM 211654Z 09014G21KT 10SM CLR 28/24 A2984 RMK AO2 SLP097
T02780239





000
SAGM31 PGUM 211655
MTRGUM
METAR PGUM 211654Z 09014G21KT 10SM CLR 28/24 A2984 RMK AO2 SLP097
T02780239




000
SAGM31 PGUM 211555
MTRGUM
METAR PGUM 211554Z 08013G20KT 10SM FEW110 28/24 A2985 RMK AO2 SLP101
T02780239




000
SAGM31 PGUM 211555
MTRGUM
METAR PGUM 211554Z 08013G20KT 10SM FEW110 28/24 A2985 RMK AO2 SLP101
T02780239





000
SAGM31 PGUM 211455
MTRGUM
METAR PGUM 211454Z 08015G23KT 10SM FEW019 28/24 A2987 RMK AO2 SLP106
60000 T02780244 56007




000
SAGM31 PGUM 211455
MTRGUM
METAR PGUM 211454Z 08015G23KT 10SM FEW019 28/24 A2987 RMK AO2 SLP106
60000 T02780244 56007





000
SAGM31 PGUM 211355
MTRGUM
METAR PGUM 211354Z 09011KT 10SM FEW020 SCT027 SCT110 28/24 A2987 RMK
AO2 SLP107 T02780244 403170272




000
SAGM31 PGUM 211355
MTRGUM
METAR PGUM 211354Z 09011KT 10SM FEW020 SCT027 SCT110 28/24 A2987 RMK
AO2 SLP107 T02780244 403170272





000
SAGM31 PGUM 211355
MTRGUM
METAR PGUM 211354Z 09011KT 10SM FEW020 SCT027 SCT110 28/24 A2987 RMK
AO2 SLP107 T02780244 403170272





000
SAGM31 PGUM 211355
MTRGUM
METAR PGUM 211354Z 09011KT 10SM FEW020 SCT027 SCT110 28/24 A2987 RMK
AO2 SLP107 T02780244 403170272




000
SAGM31 PGUM 211254
MTRGUM
METAR PGUM 211254Z 08012KT 10SM FEW023 BKN110 28/24 A2988 RMK AO2
RAB11E18B46E48 SLP110 P0000 T02780244




000
SAGM31 PGUM 211254
MTRGUM
METAR PGUM 211254Z 08012KT 10SM FEW023 BKN110 28/24 A2988 RMK AO2
RAB11E18B46E48 SLP110 P0000 T02780244





000
SAGM31 PGUM 211254
MTRGUM
METAR PGUM 211254Z 08012KT 10SM FEW023 BKN110 28/24 A2988 RMK AO2
RAB11E18B46E48 SLP110 P0000 T02780244




000
SAGM31 PGUM 211254
MTRGUM
METAR PGUM 211254Z 08012KT 10SM FEW023 BKN110 28/24 A2988 RMK AO2
RAB11E18B46E48 SLP110 P0000 T02780244





000
SAGM31 PGUM 211154
MTRGUM
METAR PGUM 211154Z 08013KT 10SM FEW022 28/24 A2989 RMK AO2 SLP113
60001 70001 T02830239 10306 20278 51010




000
SAGM31 PGUM 211154
MTRGUM
METAR PGUM 211154Z 08013KT 10SM FEW022 28/24 A2989 RMK AO2 SLP113
60001 70001 T02830239 10306 20278 51010





000
SAGM31 PGUM 211154
MTRGUM
METAR PGUM 211154Z 08013KT 10SM FEW022 28/24 A2989 RMK AO2 SLP113
60001 70001 T02830239 10306 20278 51010





000
SAGM31 PGUM 211154
MTRGUM
METAR PGUM 211154Z 08013KT 10SM FEW022 28/24 A2989 RMK AO2 SLP113
60001 70001 T02830239 10306 20278 51010




000
SAGM31 PGUM 211055
MTRGUM
METAR PGUM 211054Z 08013G21KT 10SM FEW021 28/24 A2989 RMK AO2
RAB18E31 SLP112 P0000 T02780244





000
SAGM31 PGUM 211055
MTRGUM
METAR PGUM 211054Z 08013G21KT 10SM FEW021 28/24 A2989 RMK AO2
RAB18E31 SLP112 P0000 T02780244




000
SAGM31 PGUM 211055
MTRGUM
METAR PGUM 211054Z 08013G21KT 10SM FEW021 28/24 A2989 RMK AO2
RAB18E31 SLP112 P0000 T02780244





000
SAGM31 PGUM 211055
MTRGUM
METAR PGUM 211054Z 08013G21KT 10SM FEW021 28/24 A2989 RMK AO2
RAB18E31 SLP112 P0000 T02780244




000
SAGM31 PGUM 210955
MTRGUM
METAR PGUM 210954Z 08011KT 10SM SCT022 SCT029 BKN035 28/24 A2988 RMK
AO2 SLP109 T02830239




000
SAGM31 PGUM 210955
MTRGUM
METAR PGUM 210954Z 08011KT 10SM SCT022 SCT029 BKN035 28/24 A2988 RMK
AO2 SLP109 T02830239





000
SAGM31 PGUM 210955
MTRGUM
METAR PGUM 210954Z 08011KT 10SM SCT022 SCT029 BKN035 28/24 A2988 RMK
AO2 SLP109 T02830239




000
SAGM31 PGUM 210955
MTRGUM
METAR PGUM 210954Z 08011KT 10SM SCT022 SCT029 BKN035 28/24 A2988 RMK
AO2 SLP109 T02830239





000
SAGM31 PGUM 210855
MTRGUM
METAR PGUM 210854Z 08014G20KT 10SM FEW026 28/23 A2986 RMK AO2 SLP103
T02830233 53009




000
SAGM31 PGUM 210855
MTRGUM
METAR PGUM 210854Z 08014G20KT 10SM FEW026 28/23 A2986 RMK AO2 SLP103
T02830233 53009





000
SAGM31 PGUM 210754
MTRGUM
METAR PGUM 210754Z 08014KT 10SM FEW024 29/23 A2985 RMK AO2 SLP099
T02890233




000
SAGM31 PGUM 210754
MTRGUM
METAR PGUM 210754Z 08014KT 10SM FEW024 29/23 A2985 RMK AO2 SLP099
T02890233





000
SAGM31 PGUM 210654
MTRGUM
METAR PGUM 210654Z 09016G23KT 10SM FEW024 SCT035 30/23 A2984 RMK AO2
SLP097 T03000233




000
SAGM31 PGUM 210654
MTRGUM
METAR PGUM 210654Z 09016G23KT 10SM FEW024 SCT035 30/23 A2984 RMK AO2
SLP097 T03000233





000
SAGM31 PGUM 210555
MTRGUM
METAR PGUM 210554Z 08017G24KT 10SM FEW021 30/23 A2983 RMK AO2 SLP094
T03000233 10317 20300 55010





000
SAGM31 PGUM 210555
MTRGUM
METAR PGUM 210554Z 08017G24KT 10SM FEW021 30/23 A2983 RMK AO2 SLP094
T03000233 10317 20300 55010




000
SAGM31 PGUM 210455
MTRGUM
METAR PGUM 210454Z 09015G22KT 10SM FEW026 31/24 A2983 RMK AO2 PK WND
09026/0425 SLP093 T03110239





000
SAGM31 PGUM 210455
MTRGUM
METAR PGUM 210454Z 09015G22KT 10SM FEW026 31/24 A2983 RMK AO2 PK WND
09026/0425 SLP093 T03110239




000
SAGM31 PGUM 210455
MTRGUM
METAR PGUM 210454Z 09015G22KT 10SM FEW026 31/24 A2983 RMK AO2 PK WND
09026/0425 SLP093 T03110239





000
SAGM31 PGUM 210455
MTRGUM
METAR PGUM 210454Z 09015G22KT 10SM FEW026 31/24 A2983 RMK AO2 PK WND
09026/0425 SLP093 T03110239




000
SAGM31 PGUM 210355
MTRGUM
METAR PGUM 210354Z 09017G26KT 10SM FEW026 SCT039 31/23 A2984 RMK AO2
PK WND 08027/0314 SLP097 T03110233




000
SAGM31 PGUM 210355
MTRGUM
METAR PGUM 210354Z 09017G26KT 10SM FEW026 SCT039 31/23 A2984 RMK AO2
PK WND 08027/0314 SLP097 T03110233





000
SAGM31 PGUM 210355
MTRGUM
METAR PGUM 210354Z 09017G26KT 10SM FEW026 SCT039 31/23 A2984 RMK AO2
PK WND 08027/0314 SLP097 T03110233




000
SAGM31 PGUM 210355
MTRGUM
METAR PGUM 210354Z 09017G26KT 10SM FEW026 SCT039 31/23 A2984 RMK AO2
PK WND 08027/0314 SLP097 T03110233





000
SAGM31 PGUM 210255
MTRGUM
METAR PGUM 210254Z 09017G24KT 10SM FEW022 BKN035 31/24 A2986 RMK AO2
SLP104 T03060239 58019




000
SAGM31 PGUM 210154
MTRGUM
METAR PGUM 210154Z 07020G27KT 10SM SCT025 BKN033 31/23 A2989 RMK AO2
PK WND 07028/0144 SLP111 T03110233




000
SAGM31 PGUM 210154
MTRGUM
METAR PGUM 210154Z 07020G27KT 10SM SCT025 BKN033 31/23 A2989 RMK AO2
PK WND 07028/0144 SLP111 T03110233





000
SAGM31 PGUM 210054
MTRGUM
METAR PGUM 210054Z 09018G27KT 10SM FEW024 31/23 A2991 RMK AO2 PK WND
08028/0016 SLP117 T03110233





000
SAGM31 PGUM 210054
MTRGUM
METAR PGUM 210054Z 09018G27KT 10SM FEW024 31/23 A2991 RMK AO2 PK WND
08028/0016 SLP117 T03110233




000
SAGM31 PGUM 202354
MTRGUM
METAR PGUM 202354Z 07015G26KT 10SM SCT024 31/24 A2992 RMK AO2 PK WND
07028/2341 SLP123 60000 T03060239 10306 20272 50008





000
SAGM31 PGUM 202354
MTRGUM
METAR PGUM 202354Z 07015G26KT 10SM SCT024 31/24 A2992 RMK AO2 PK WND
07028/2341 SLP123 60000 T03060239 10306 20272 50008




000
SAGM31 PGUM 202254
MTRGUM
METAR PGUM 202254Z 08017G27KT 10SM FEW021 29/24 A2992 RMK AO2 PK WND
09027/2254 SLP125 T02940239





000
SAGM31 PGUM 202254
MTRGUM
METAR PGUM 202254Z 08017G27KT 10SM FEW021 29/24 A2992 RMK AO2 PK WND
09027/2254 SLP125 T02940239




000
SAGM31 PGUM 202155
MTRGUM
METAR PGUM 202154Z 06011G17KT 10SM FEW030 BKN085 28/24 A2992 RMK AO2
RAB14E24 SLP123 P0000 T02830239





000
SAGM31 PGUM 202155
MTRGUM
METAR PGUM 202154Z 06011G17KT 10SM FEW030 BKN085 28/24 A2992 RMK AO2
RAB14E24 SLP123 P0000 T02830239




000
SAGM31 PGUM 202055
MTRGUM
METAR PGUM 202054Z 06012KT 10SM FEW065 28/24 A2989 RMK AO2 SLP114
T02780239 53009




000
SAGM31 PGUM 202055
MTRGUM
METAR PGUM 202054Z 06012KT 10SM FEW065 28/24 A2989 RMK AO2 SLP114
T02780239 53009





000
SAGM31 PGUM 201955
MTRGUM
METAR PGUM 201954Z 06009KT 10SM FEW020 27/24 A2988 RMK AO2 SLP109
T02720244





000
SAGM31 PGUM 201955
MTRGUM
METAR PGUM 201954Z 06009KT 10SM FEW020 27/24 A2988 RMK AO2 SLP109
T02720244




000
SAGM31 PGUM 201854
MTRGUM
METAR PGUM 201854Z 07010KT 10SM FEW022 SCT027 SCT110 27/24 A2988 RMK
AO2 SLP109 OCNL LTGIC DSNT SW-NW T02720239




000
SAGM31 PGUM 201854
MTRGUM
METAR PGUM 201854Z 07010KT 10SM FEW022 SCT027 SCT110 27/24 A2988 RMK
AO2 SLP109 OCNL LTGIC DSNT SW-NW T02720239





000
SAGM31 PGUM 201754
MTRGUM
METAR PGUM 201754Z 07012KT 10SM FEW022 SCT026 BKN031 28/24 A2986 RMK
AO2 SLP105 T02780239 10283 20272 55012




000
SAGM31 PGUM 201655
MTRGUM
METAR PGUM 201654Z 06011KT 10SM CLR 28/24 A2986 RMK AO2 SLP102 OCNL
LTGIC DSNT SW T02780239




000
SAGM31 PGUM 201655
MTRGUM
METAR PGUM 201654Z 06011KT 10SM CLR 28/24 A2986 RMK AO2 SLP102 OCNL
LTGIC DSNT SW T02780239





000
SAGM31 PGUM 201555
MTRGUM
METAR PGUM 201554Z 07012KT 10SM CLR 28/23 A2988 RMK AO2 SLP111
T02780233




000
SAGM31 PGUM 201555
MTRGUM
METAR PGUM 201554Z 07012KT 10SM CLR 28/23 A2988 RMK AO2 SLP111
T02780233





000
SAGM31 PGUM 201455
MTRGUM
METAR PGUM 201454Z 06013G19KT 10SM FEW025 28/23 A2990 RMK AO2 SLP116
T02780233 55002





000
SAGM31 PGUM 201455
MTRGUM
METAR PGUM 201454Z 06013G19KT 10SM FEW025 28/23 A2990 RMK AO2 SLP116
T02780233 55002




000
SAGM31 PGUM 201355
MTRGUM
METAR PGUM 201354Z 07013KT 10SM FEW027 28/23 A2990 RMK AO2 SLP115
T02830233 403220267




000
SAGM31 PGUM 201355
MTRGUM
METAR PGUM 201354Z 07013KT 10SM FEW027 28/23 A2990 RMK AO2 SLP115
T02830233 403220267





000
SAGM31 PGUM 201254
MTRGUM
METAR PGUM 201254Z 07015G21KT 10SM FEW023 SCT030 28/23 A2990 RMK AO2
SLP117 T02830233




000
SAGM31 PGUM 201254
MTRGUM
METAR PGUM 201254Z 07015G21KT 10SM FEW023 SCT030 28/23 A2990 RMK AO2
SLP117 T02830233





000
SAGM31 PGUM 201154
MTRGUM
METAR PGUM 201154Z 07011KT 10SM FEW021 SCT033 28/24 A2991 RMK AO2
SLP119 60000 T02830239 10306 20283 51012




000
SAGM31 PGUM 201154
MTRGUM
METAR PGUM 201154Z 07011KT 10SM FEW021 SCT033 28/24 A2991 RMK AO2
SLP119 60000 T02830239 10306 20283 51012





000
SAGM31 PGUM 201055
MTRGUM
METAR PGUM 201054Z 08015KT 10SM FEW025 28/23 A2989 RMK AO2 SLP115
T02830233





000
SAGM31 PGUM 201055
MTRGUM
METAR PGUM 201054Z 08015KT 10SM FEW025 28/23 A2989 RMK AO2 SLP115
T02830233




000
SAGM31 PGUM 200955
MTRGUM
METAR PGUM 200954Z 08012KT 10SM FEW020 28/24 A2989 RMK AO2 SLP112
T02830239




000
SAGM31 PGUM 200955
MTRGUM
METAR PGUM 200954Z 08012KT 10SM FEW020 28/24 A2989 RMK AO2 SLP112
T02830239





000
SAGM31 PGUM 200855
MTRGUM
METAR PGUM 200854Z 08011G20KT 10SM SCT022 28/24 A2987 RMK AO2 SLP107
60000 T02830239 51012




000
SAGM31 PGUM 200855
MTRGUM
METAR PGUM 200854Z 08011G20KT 10SM SCT022 28/24 A2987 RMK AO2 SLP107
60000 T02830239 51012





000
SAGM31 PGUM 200754
MTRGUM
METAR PGUM 200754Z 08013KT 10SM FEW022 28/24 A2986 RMK AO2 SLP104
T02830239




000
SAGM31 PGUM 200754
MTRGUM
METAR PGUM 200754Z 08013KT 10SM FEW022 28/24 A2986 RMK AO2 SLP104
T02830239





000
SAGM31 PGUM 200754
MTRGUM
METAR PGUM 200754Z 08013KT 10SM FEW022 28/24 A2986 RMK AO2 SLP104
T02830239




000
SAGM31 PGUM 200754
MTRGUM
METAR PGUM 200754Z 08013KT 10SM FEW022 28/24 A2986 RMK AO2 SLP104
T02830239





000
SAGM31 PGUM 200654
MTRGUM
METAR PGUM 200654Z 07019G23KT 10SM FEW022 29/23 A2985 RMK AO2
RAB39E49 SLP099 P0000 T02940233





000
SAGM31 PGUM 200654
MTRGUM
METAR PGUM 200654Z 07019G23KT 10SM FEW022 29/23 A2985 RMK AO2
RAB39E49 SLP099 P0000 T02940233




000
SAGM31 PGUM 200610
MTRGUM
METAR PGUM 200554Z COR 07020G25KT 10SM FEW023 31/24 A2984 RMK AO2
SLP095 T03060239 10322 20300 56013




000
SAGM31 PGUM 200610
MTRGUM
METAR PGUM 200554Z COR 07020G25KT 10SM FEW023 31/24 A2984 RMK AO2
SLP095 T03060239 10322 20300 56013





000
SAGM31 PGUM 200555
MTRGUM
METAR PGUM 200554Z 07020G25KT 10SM FEW023 31/24 A2984 RMK AO2 SLP095
60000 T03060239 10322 20300 56013





000
SAGM31 PGUM 200555
MTRGUM
METAR PGUM 200554Z 07020G25KT 10SM FEW023 31/24 A2984 RMK AO2 SLP095
60000 T03060239 10322 20300 56013




000
SAGM31 PGUM 200455
MTRGUM
METAR PGUM 200454Z 06020KT 10SM SCT026 SCT032 31/24 A2984 RMK AO2 PK
WND 06031/0417 SLP095 P0000 T03110239




000
SAGM31 PGUM 200455
MTRGUM
METAR PGUM 200454Z 06020KT 10SM SCT026 SCT032 31/24 A2984 RMK AO2 PK
WND 06031/0417 SLP095 P0000 T03110239





000
SAGM31 PGUM 200355
MTRGUM
METAR PGUM 200354Z 08021G26KT 10SM SCT027 31/23 A2985 RMK AO2 PK WND
07029/0342 SLP100 T03110233




000
SAGM31 PGUM 200355
MTRGUM
METAR PGUM 200354Z 08021G26KT 10SM SCT027 31/23 A2985 RMK AO2 PK WND
07029/0342 SLP100 T03110233





000
SAGM31 PGUM 200355
MTRGUM
METAR PGUM 200354Z 08021G26KT 10SM SCT027 31/23 A2985 RMK AO2 PK WND
07029/0342 SLP100 T03110233




000
SAGM31 PGUM 200355
MTRGUM
METAR PGUM 200354Z 08021G26KT 10SM SCT027 31/23 A2985 RMK AO2 PK WND
07029/0342 SLP100 T03110233





000
SAGM31 PGUM 200255
MTRGUM
METAR PGUM 200254Z 08015G23KT 10SM SCT025 32/23 A2987 RMK AO2 PK WND
05030/0206 SLP107 T03220233 58024





000
SAGM31 PGUM 200255
MTRGUM
METAR PGUM 200254Z 08015G23KT 10SM SCT025 32/23 A2987 RMK AO2 PK WND
05030/0206 SLP107 T03220233 58024




000
SAGM31 PGUM 200154
MTRGUM
METAR PGUM 200154Z 08017G26KT 10SM FEW028 32/23 A2990 RMK AO2 PK WND
07030/0110 SLP115 T03170228





000
SAGM31 PGUM 200154
MTRGUM
METAR PGUM 200154Z 08017G26KT 10SM FEW028 32/23 A2990 RMK AO2 PK WND
07030/0110 SLP115 T03170228




000
SAGM31 PGUM 200154
MTRGUM
METAR PGUM 200154Z 08017G26KT 10SM FEW028 32/23 A2990 RMK AO2 PK WND
07030/0110 SLP115 T03170228





000
SAGM31 PGUM 200154
MTRGUM
METAR PGUM 200154Z 08017G26KT 10SM FEW028 32/23 A2990 RMK AO2 PK WND
07030/0110 SLP115 T03170228




000
SAGM31 PGUM 200054
MTRGUM
METAR PGUM 200054Z 07021G29KT 10SM FEW026 SCT036 SCT046 31/23 A2993
RMK AO2 PK WND 07029/0050 SLP126 T03110233




000
SAGM31 PGUM 200054
MTRGUM
METAR PGUM 200054Z 07021G29KT 10SM FEW026 SCT036 SCT046 31/23 A2993
RMK AO2 PK WND 07029/0050 SLP126 T03110233





000
SAGM31 PGUM 192355
MTRGUM
METAR PGUM 192354Z 07016G24KT 10SM FEW024 SCT044 30/23 A2994 RMK AO2
PK WND 08027/2316 SLP132 T03000233 10306 20267 51013





    US Dept of Commerce
    National Oceanic and Atmospheric Administration
    National Weather Service
    1325 East West Highway
    Silver Spring, MD 20910
    Page Author: NWS Internet Services Team
Disclaimer
Information Quality
Credits
Glossary
Privacy Policy
Freedom of Information Act (FOIA)
About Us
Career Opportunities